Showing default

HULIANWANG DIGUI-160, 68134

Orbit data source: Space-Track

HULIANWANG DIGUI-160, 68134 is a payload satellite owned by Zhongguo Xingwang (CN) in LEO that was launched on Thu, 12 Mar 2026 UTC via a CHANG ZHENG 8A launch vehicle from the Wenchang Satellite Launch Center (WSC). Payload-class satellites include a variety of spacecraft equipped with specific instruments for various scientific and technological missions. These include communications satellites like Starlink; space stations such as the ISS; scientific satellites like the Hubble; Earth observation satellites from companies like Planet Labs, Umbra, and HawkEye 360; GPS; miniature CubeSats for education and research; and military/defense satellites.

Loading next visibility...
Identifier
68134, 2026-047F
Orbit
LEO
Country
Flag of CNCN / PRC
Related business
Manufacturer
CAST?
Mission
Operational spacecraft
Bus & Motor
XINGWANG C, Unknown motor
Mass
~700 kg wet, ~700 kg dry
Launch date (UTC)
2026-03-12 (1 month ago)
Launch vehicle
CHANG ZHENG 8A
Launch site
Wenchang Satellite Launch Center (WSC)
Object type
Payload
Rocket body
Debris
Shape & HBR
Unknown
Radar Cross Section
RCS unknown

Expand to show TLE details & history
Last TLE update: 22 hours ago

TLE from 22 hours ago
0 HULIANWANG DIGUI-160
1 68134U 26047F   26104.68692964 -.00000090  00000-0  56579-4 0  9990
2 68134  50.0072 286.5427 0000365 177.1555 182.9336 13.67312628  4574
Epoch: 2026-04-14T16:29Z
TLE epoch observation values (Epoch: 2026-04-14T16:29:10.720Z)
Latitude
-0.00002°
Longitude
-163.61159°
Altitude
1,010.02 km
Speed
7.348 km/s
True Right ascension
19h 06m 10s
True Declination
0° 00' 00"
Sunlit
Object was in daylight at epoch
Visualization orbit readout
Latitude
Unknown
Longitude
Unknown
Altitude
Unknown
Speed
Unknown
Apparent Right ascension
Unknown
Apparent Declination
Unknown
Sunlit
N/A
Visualization observer readout
Local Sidereal Time
20:44:25
Azimuth
Unknown
Elevation
Unknown
Doppler factor
Unknown
Orbital elements
Apogee altitude
1,010.222 km
Perigee altitude
1,009.683 km
Semi-major axis
7,388.089 km
Eccentricity
0.00004
Inclination
50.0072°
RAAN
286.5427°
Arg. of periapsis
177.1555°
True anomaly
182.93339°
Mean anomaly
182.9336°
Eccentric anomaly
182.93349°
Mean motion
3.41779 °/min
Orbital period
105.33 mins
BSTAR
0.000056579
Loading maneuver chart data...
Computing Atmospheric mass density...
Loading historical data...
Loading historical data...
Loading historical data...
Loading historical data...
Loading historical data...
Loading historical data...
Loading historical data...

Documentation

Showing up to 5 results
|